Theta_e
311 312 313 312 312 312 313 312 312 313 316 316 315 317 317 319 320 322 321 319 320 319 321 323 323 321 319 320 319 319 323 324 325 324 326 324 325 324 323 325 325 325 326 324 324
314 312 312 313 312 312 312 312 313 312 312 313 313 317 318 319 323 321 318 318 319 319 323 323 324 320 321 321 320 321 323 325 325 325 326 325 324 325 324 325 325 325 323 324 324
314 314 313 310 313 313 311 312 312 313 312 312 313 317 317 320 326 322 318 318 317 321 322 321 322 323 323 322 323 323 324 324 322 322 323 324 323 323 324 325 326 326 325 324 325
312 314 314 313 310 313 313 312 313 314 313 312 313 314 317 318 326 323 317 318 317 321 322 321 322 325 326 326 323 324 323 322 322 321 321 323 323 324 323 327 326 325 326 327 327
308 312 314 313 311 313 314 314 313 317 315 313 314 316 320 324 321 318 316 317 321 321 321 322 322 324 326 325 324 325 324 323 323 323 323 323 323 324 326 327 326 327 327 328 329
306 309 312 314 313 311 314 315 316 318 319 315 315 316 321 323 319 320 320 320 320 321 321 322 322 321 322 324 324 326 325 324 324 325 324 324 324 325 327 326 327 328 328 328 328
310 308 310 313 313 310 314 316 318 318 318 317 318 317 323 321 320 320 321 320 319 320 322 322 322 324 323 325 323 323 325 325 324 325 326 325 325 326 327 326 327 327 327 328 328
313 308 309 311 312 310 315 318 318 317 317 317 319 319 323 320 321 321 321 321 319 320 321 321 322 323 325 324 325 326 325 327 326 325 325 324 327 329 326 327 327 327 327 327 327
313 309 312 311 311 310 315 318 318 318 318 318 319 325 322 318 321 320 320 321 320 320 321 320 322 324 324 328 328 326 328 327 327 325 326 325 326 329 326 326 326 327 327 327 327
313 310 312 313 310 312 316 318 318 319 319 317 324 325 321 322 320 319 320 320 321 322 323 323 324 327 327 327 329 329 326 326 325 326 325 325 325 328 326 325 326 326 326 327 327
315 310 312 310 310 315 318 320 322 324 323 325 323 323 321 320 320 320 319 320 322 323 325 322 327 325 324 324 325 325 325 325 325 325 324 324 325 325 327 327 326 327 326 327 327
318 312 313 310 315 317 320 323 322 322 324 321 321 321 320 320 321 320 319 321 322 324 323 325 326 323 323 323 324 324 325 326 325 324 325 324 325 325 326 327 326 326 326 326 326
318 314 315 313 316 319 321 320 321 321 325 320 320 321 320 320 322 321 320 320 322 323 322 324 323 323 322 324 324 326 325 326 325 324 324 325 327 327 326 326 326 326 326 326 325
318 316 314 313 320 319 321 320 320 322 328 323 322 322 321 321 321 320 320 320 323 322 321 323 321 322 324 324 323 325 326 323 324 325 326 326 325 326 329 329 327 327 326 325 324
317 318 312 315 312 321 321 320 320 323 335 325 323 320 321 321 322 321 320 321 323 322 321 324 321 322 323 322 321 323 323 322 324 324 325 324 325 325 328 328 328 327 326 325 323
317 318 316 321 318 318 318 320 322 327 331 326 323 322 322 322 322 322 321 320 321 322 321 322 320 321 321 319 319 320 323 325 326 326 327 327 325 329 330 329 330 327 324 323 322
317 318 317 313 322 319 319 320 327 327 327 326 323 323 324 324 324 323 323 324 323 324 324 321 321 320 319 322 323 324 327 331 326 327 327 328 326 328 328 327 326 325 323 322 322
317 318 318 313 321 320 320 324 326 325 328 324 323 323 324 324 324 322 322 323 321 321 322 322 324 320 320 321 324 324 325 338 333 325 325 324 326 331 326 325 325 324 323 322 322
317 316 316 322 320 321 321 325 326 325 325 324 323 323 324 324 323 322 322 323 323 321 324 322 322 319 318 320 324 329 329 325 331 329 329 326 327 326 326 326 325 324 323 322 320
314 314 318 323 321 321 323 324 325 324 323 323 324 324 325 325 320 321 323 322 322 321 321 325 324 321 320 320 323 324 324 329 331 335 330 322 324 330 326 326 325 324 323 321 320
312 317 324 320 321 322 325 325 324 322 321 323 324 324 322 322 321 321 322 323 322 321 320 322 322 324 319 322 326 326 327 325 325 327 334 331 326 326 326 326 326 324 322 320 320
310 320 321 320 322 323 326 325 323 323 321 323 323 323 322 321 320 320 322 323 321 321 322 324 324 324 322 321 320 321 323 324 327 329 332 330 329 327 326 325 324 322 321 320 319
309 313 317 319 325 326 325 325 324 322 323 323 323 321 321 321 321 320 321 323 321 321 322 324 322 324 323 323 322 322 323 324 325 325 327 334 330 324 324 324 323 321 321 320 319
309 320 320 319 319 325 327 326 325 321 322 322 323 321 321 321 321 323 322 323 321 320 317 317 321 323 333 323 322 322 323 322 324 326 326 331 327 324 323 324 322 321 320 319 319
312 319 319 324 323 323 323 325 325 324 321 321 323 322 323 323 322 321 322 323 321 318 319 320 322 322 321 320 320 320 320 321 322 323 325 325 325 323 325 324 321 320 319 319 319
310 315 316 315 316 319 319 323 323 324 323 322 322 323 322 323 323 323 321 322 322 322 322 322 324 321 322 321 320 320 320 320 321 322 323 323 324 323 322 320 320 319 319 318 318
305 306 309 311 315 316 317 322 322 322 322 321 322 322 322 322 321 321 320 320 320 321 323 324 324 323 323 321 319 321 322 323 323 322 323 323 323 322 322 321 320 319 319 319 318
Wind_Speed
15 13 11 9 6 6 5 3 3 2 1 2 5 6 6 10 6 5 6 4 3 4 5 1 1 4 6 6 9 10 10 12 11 8 7 6 11 4 1 6 1 3 7 5 3
16 15 13 11 9 6 5 4 4 3 2 1 2 2 5 6 2 3 3 5 5 4 7 4 3 5 8 6 5 11 10 6 10 4 2 5 7 3 6 9 6 7 5 2 3
16 15 14 13 10 8 6 5 4 4 3 2 1 3 6 2 7 4 0 3 5 5 4 2 2 7 6 7 4 6 10 9 2 2 6 2 5 4 7 7 9 6 9 5 3
18 16 14 13 11 9 7 6 4 3 3 3 2 2 6 7 1 2 1 2 3 8 4 4 6 9 7 6 4 9 3 3 6 3 6 7 6 1 4 11 5 3 2 2 3
21 17 15 14 13 9 7 5 3 2 1 2 2 6 7 6 7 2 1 1 3 4 4 3 3 4 8 2 5 11 5 4 3 4 7 7 7 5 5 2 3 5 5 6 7
24 20 16 14 13 8 7 4 1 1 1 2 4 7 5 4 3 2 2 2 3 4 3 4 3 4 3 6 8 2 3 7 4 8 4 10 5 7 7 3 4 5 6 7 8
30 24 18 14 11 7 4 2 2 2 2 3 5 10 6 7 5 1 2 3 4 3 4 2 2 8 2 5 1 8 9 9 9 8 6 8 7 9 5 3 2 3 4 6 7
32 29 20 14 11 6 2 1 2 3 5 4 6 9 2 5 3 1 1 2 3 2 2 3 3 3 8 1 6 11 12 12 13 5 7 9 7 11 5 4 2 1 3 2 5
31 31 23 15 10 3 1 2 1 5 1 7 7 6 7 5 3 2 1 1 1 2 1 2 4 6 7 12 10 8 11 5 9 3 6 7 9 14 3 3 3 5 2 2 4
30 30 25 17 7 0 1 2 3 3 5 8 6 7 7 7 5 2 1 2 1 2 7 8 8 11 8 7 8 7 5 7 7 10 7 11 11 13 5 6 6 3 3 2 6
28 29 25 16 5 3 2 1 3 4 11 8 12 5 11 6 5 3 2 1 3 8 5 3 11 7 10 6 9 9 6 7 2 3 6 12 10 10 12 7 8 4 1 4 7
28 26 23 12 5 5 5 5 5 3 6 5 6 4 7 6 6 4 3 7 6 5 4 9 3 5 7 4 6 6 8 9 2 4 6 13 12 12 6 6 1 2 3 6 10
27 23 19 8 3 3 3 3 5 4 8 9 10 11 11 9 3 4 4 2 7 5 4 7 10 3 4 6 7 7 8 8 9 12 15 17 16 16 7 7 4 7 4 6 8
27 22 15 5 2 2 2 5 5 3 5 14 12 8 9 7 7 3 3 7 7 7 4 4 6 4 1 1 7 11 4 7 10 11 11 5 11 12 16 12 11 7 4 7 10
26 23 14 8 5 7 4 5 3 2 5 16 14 7 6 11 8 8 5 6 10 4 7 6 2 3 5 4 7 9 6 11 12 12 13 16 7 11 10 12 11 5 6 9 16
25 23 14 7 6 5 4 4 1 7 6 8 8 12 12 10 6 4 7 6 6 9 5 5 1 3 5 6 6 9 12 14 12 12 11 9 2 9 3 5 13 9 9 12 18
27 21 15 8 3 7 5 6 7 9 8 10 9 10 14 8 7 8 8 10 8 8 11 7 8 3 5 12 7 11 9 5 6 8 3 5 3 5 5 5 5 5 10 15 19
29 21 15 10 9 6 4 9 11 5 7 2 4 10 11 8 10 7 8 9 5 10 7 7 8 7 3 5 9 3 6 3 3 7 13 8 8 7 5 3 1 7 14 18 19
24 14 12 9 11 7 11 10 15 4 3 7 9 12 13 6 6 9 12 8 4 3 7 5 4 6 1 6 6 4 2 8 3 10 7 11 8 10 6 2 7 16 17 17 22
22 13 10 12 10 9 10 16 13 2 4 9 13 11 11 13 10 10 10 5 5 3 5 3 4 6 6 6 5 8 6 4 5 3 6 10 8 8 4 2 7 16 21 19 22
14 7 6 7 10 14 11 14 14 7 10 9 12 8 11 7 11 11 4 10 5 7 4 2 4 8 4 10 8 8 11 4 2 4 3 5 2 2 4 9 11 15 18 22 26
7 6 3 7 12 15 13 16 3 8 10 7 7 9 9 9 10 12 7 4 9 2 6 5 4 9 10 7 5 7 8 4 3 6 6 5 8 6 4 4 13 18 20 23 24
10 16 9 8 7 12 14 7 7 11 13 10 9 8 7 8 7 9 5 12 9 8 2 3 5 7 13 11 7 7 8 7 6 6 11 4 7 6 12 13 14 18 22 23 24
8 4 10 13 19 11 13 13 14 14 13 12 8 8 8 10 10 5 9 8 10 8 8 3 9 9 7 13 5 5 9 9 9 8 11 11 14 15 10 11 16 19 22 25 25
5 1 5 4 4 8 12 10 15 11 14 14 10 12 11 9 11 11 10 10 10 9 6 6 12 13 15 16 13 13 13 13 15 15 14 13 16 15 13 15 16 21 24 24 24
8 6 9 16 15 9 9 13 13 14 12 15 15 13 12 11 9 5 9 9 9 15 10 9 10 9 14 14 15 18 17 16 16 16 19 14 15 13 18 14 19 22 23 22 26
7 10 7 11 9 8 10 12 8 11 7 11 8 12 11 8 9 3 3 7 7 8 9 12 9 9 13 16 9 13 16 16 16 17 12 12 9 10 11 15 19 23 19 24 27
Wind_Direction
21 17 14 6 2 2 356 336 314 309 325 352 9 51 91 129 113 78 51 78 52 40 27 20 272 228 208 226 240 247 259 252 231 267 142 136 240 131 217 255 260 43 42 48 38
13 10 5 3 356 344 339 329 309 290 283 314 359 73 121 150 206 90 92 63 49 68 348 287 199 196 208 219 217 243 252 280 37 12 13 127 271 83 252 201 188 187 154 36 327
4 2 0 353 351 344 330 321 305 281 261 266 271 181 140 188 270 85 355 33 39 45 347 325 256 251 223 240 183 204 291 63 106 22 315 282 230 208 283 271 38 336 315 349 312
359 353 350 350 340 339 334 318 301 287 261 254 277 219 215 228 335 159 251 22 40 37 328 299 235 234 250 222 220 248 312 223 153 153 244 251 290 259 299 28 14 45 22 358 10
3 352 344 341 341 331 334 324 291 290 264 224 179 146 158 202 74 80 117 355 6 352 354 323 310 265 249 245 222 254 169 207 184 218 247 269 250 278 101 358 74 79 71 59 50
6 356 344 336 336 329 331 328 283 259 283 178 168 182 255 209 147 112 63 308 329 313 339 342 350 315 329 270 259 55 233 203 214 214 159 236 181 188 129 182 111 80 67 59 51
5 359 347 337 333 324 328 322 286 288 237 174 173 197 265 108 163 238 312 304 284 281 295 333 315 281 301 192 298 228 229 208 206 207 146 271 183 209 126 174 148 88 66 60 47
2 359 355 342 334 321 326 337 288 308 182 148 158 177 73 149 189 308 261 258 346 225 262 283 282 290 275 324 215 225 229 209 146 185 132 246 234 115 186 190 187 332 113 25 41
1 359 355 348 337 319 299 357 34 127 143 199 171 219 142 160 164 118 75 79 62 164 251 281 252 284 208 234 207 182 252 207 144 185 340 232 303 129 197 222 254 252 292 37 354
359 359 355 347 342 61 132 72 111 128 101 135 233 234 172 170 148 144 110 66 45 190 215 232 229 232 208 271 337 1 289 180 278 141 218 263 259 164 172 267 228 264 292 331 344
357 358 357 357 18 99 113 119 186 190 213 287 193 297 133 142 157 184 205 230 266 235 246 283 264 11 354 336 325 316 291 283 317 27 275 275 294 273 166 224 226 222 206 323 329
355 356 360 9 62 76 47 290 356 331 235 206 193 201 160 166 174 194 230 249 269 297 209 229 116 355 309 286 283 256 267 257 302 217 269 281 279 277 203 197 257 232 289 323 317
351 355 358 8 49 59 38 15 334 297 257 171 180 184 185 197 203 163 263 280 292 256 324 328 42 348 250 198 256 229 296 332 313 318 275 252 264 219 137 165 174 214 258 293 320
347 349 349 1 12 277 244 340 337 272 263 160 195 190 187 215 198 195 249 296 231 326 302 343 89 289 222 166 293 294 76 292 285 281 289 332 292 227 160 183 183 214 257 309 327
341 340 342 336 279 281 290 313 287 269 270 135 177 143 185 209 111 174 214 250 282 357 263 90 161 281 235 15 309 319 340 291 287 285 293 274 233 242 169 203 126 332 271 325 329
334 333 330 327 297 277 293 279 257 233 247 154 176 203 194 195 206 129 220 237 304 261 266 56 117 260 359 288 270 309 275 261 244 248 257 224 301 93 86 172 176 186 352 325 332
326 321 307 257 262 291 271 228 227 242 107 161 203 196 214 174 197 222 211 213 257 224 197 175 176 148 274 278 186 241 273 320 247 208 301 123 270 72 80 87 29 356 312 334 328
320 313 296 253 230 275 232 235 252 295 176 100 211 211 221 199 229 188 234 228 210 267 275 244 180 182 102 322 332 330 319 95 258 337 318 295 249 100 76 59 292 281 338 327 333
319 312 279 257 212 227 237 230 243 302 220 192 210 223 211 209 267 203 220 258 89 264 280 225 185 136 147 288 273 117 221 32 272 283 279 256 142 133 165 174 30 348 332 331 334
327 311 258 209 205 207 235 251 281 257 251 214 216 208 237 188 207 208 193 158 177 279 288 86 273 186 109 253 194 299 56 207 150 292 298 312 347 73 75 185 352 341 316 338 331
332 282 186 217 189 217 233 242 239 183 216 223 240 245 250 235 216 230 200 120 191 182 269 318 258 147 215 207 245 180 206 202 308 339 262 302 33 255 32 9 341 301 324 338 333
311 255 180 179 214 230 237 238 275 203 210 217 271 249 245 231 232 245 227 223 185 239 237 73 294 269 242 73 289 293 298 265 266 253 196 247 280 356 9 293 311 316 333 331 331
303 276 255 204 236 233 228 248 223 219 207 215 229 229 212 229 232 241 217 107 183 213 318 152 228 258 222 195 206 241 232 229 260 272 268 264 268 241 320 333 301 322 329 332 333
297 283 200 217 250 291 288 213 220 232 216 218 232 216 206 225 204 223 219 147 201 223 85 344 270 255 262 326 333 253 229 264 257 273 257 258 270 296 314 330 335 336 333 330 324
253 330 345 274 215 302 267 278 241 200 224 204 214 225 214 226 215 223 207 166 197 157 224 242 262 260 258 266 277 273 264 266 248 255 270 278 287 305 4 317 336 332 332 321 340
303 342 334 288 284 278 250 249 249 248 194 218 234 217 237 229 240 244 223 224 226 178 222 210 267 266 279 277 263 266 264 262 257 268 268 272 275 30 288 335 337 333 323 340 337
308 294 278 290 264 251 250 246 253 269 198 267 278 245 219 242 257 309 320 308 299 272 234 233 244 259 266 277 275 264 253 257 252 248 270 281 312 312 343 342 340 324 327 337 336